Time,TemperatureF,DewpointF,PressureIn,WindDirection,WindDirectionDegrees,WindSpeedMPH,WindSpeedGustMPH,Humidity,HourlyPrecipIn,Conditions,Clouds,dailyrainin,SoftwareType,DateUTC
2013-07-13 00:05:00,65.0,58.7,30.22,SSE,155,0.0,1.0,80,0.00,,,0.00,Wunderground v.1.15,2013-07-13 04:05:00,
2013-07-13 00:10:00,64.9,58.9,30.22,SSE,155,0.0,1.0,81,0.00,,,0.00,Wunderground v.1.15,2013-07-13 04:10:00,
2013-07-13 00:15:00,64.8,59.2,30.22,SSE,155,0.0,1.0,82,0.00,,,0.00,Wunderground v.1.15,2013-07-13 04:15:00,
2013-07-13 00:25:00,64.6,59.3,30.22,SSE,155,0.0,1.0,83,0.00,,,0.00,Wunderground v.1.15,2013-07-13 04:25:00,
2013-07-13 00:30:00,64.5,59.2,30.22,SSE,155,0.0,1.0,83,0.00,,,0.00,Wunderground v.1.15,2013-07-13 04:30:00,
2013-07-13 00:35:00,64.4,59.1,30.22,SSE,155,0.0,1.0,83,0.00,,,0.00,Wunderground v.1.15,2013-07-13 04:35:00,
2013-07-13 00:40:00,64.3,59.0,30.22,SSE,155,0.0,1.0,83,0.00,,,0.00,Wunderground v.1.15,2013-07-13 04:40:00,
2013-07-13 00:45:00,64.4,59.5,30.22,SSE,155,0.0,1.0,84,0.00,,,0.00,Wunderground v.1.15,2013-07-13 04:45:00,
2013-07-13 00:50:00,64.4,59.5,30.22,SSE,155,0.0,1.0,84,0.00,,,0.00,Wunderground v.1.15,2013-07-13 04:50:00,
2013-07-13 00:55:00,64.4,59.5,30.23,SSE,155,0.0,1.0,84,0.00,,,0.00,Wunderground v.1.15,2013-07-13 04:55:00,
2013-07-13 01:00:00,64.4,59.1,30.22,SSE,155,0.0,1.0,83,0.00,,,0.00,Wunderground v.1.15,2013-07-13 05:00:00,
2013-07-13 01:05:00,64.4,58.8,30.22,SSE,155,0.0,1.0,82,0.00,,,0.00,Wunderground v.1.15,2013-07-13 05:05:00,
2013-07-13 01:15:00,64.5,58.9,30.22,SSE,155,0.0,1.0,82,0.00,,,0.00,Wunderground v.1.15,2013-07-13 05:15:00,
2013-07-13 01:25:00,64.6,59.0,30.23,SSE,155,0.0,1.0,82,0.00,,,0.00,Wunderground v.1.15,2013-07-13 05:25:00,
2013-07-13 01:35:00,64.7,59.1,30.22,SSE,155,0.0,1.0,82,0.00,,,0.00,Wunderground v.1.15,2013-07-13 05:35:00,
2013-07-13 01:40:00,64.8,58.8,30.22,SSE,155,0.0,1.0,81,0.00,,,0.00,Wunderground v.1.15,2013-07-13 05:40:00,
2013-07-13 01:45:00,64.8,58.8,30.22,SSE,155,0.0,1.0,81,0.00,,,0.00,Wunderground v.1.15,2013-07-13 05:45:00,
2013-07-13 01:55:00,65.0,59.0,30.22,SSE,155,0.0,1.0,81,0.00,,,0.00,Wunderground v.1.15,2013-07-13 05:55:00,
2013-07-13 02:00:00,65.1,59.1,30.23,SSE,155,0.0,1.0,81,0.00,,,0.00,Wunderground v.1.15,2013-07-13 06:00:00,
2013-07-13 02:05:00,65.1,59.1,30.23,SSE,155,0.0,1.0,81,0.00,,,0.00,Wunderground v.1.15,2013-07-13 06:05:00,
2013-07-13 02:15:00,65.1,58.8,30.23,SSE,155,0.0,1.0,80,0.00,,,0.00,Wunderground v.1.15,2013-07-13 06:15:00,
2013-07-13 02:20:00,65.2,59.2,30.23,SSE,155,0.0,1.0,81,0.00,,,0.00,Wunderground v.1.15,2013-07-13 06:20:00,
2013-07-13 02:30:00,65.2,59.2,30.23,SSE,155,0.0,1.0,81,0.00,,,0.00,Wunderground v.1.15,2013-07-13 06:30:00,
2013-07-13 02:35:00,65.1,59.1,30.23,SSE,155,0.0,1.0,81,0.00,,,0.00,Wunderground v.1.15,2013-07-13 06:35:00,
2013-07-13 02:40:00,65.2,59.6,30.23,SSE,155,0.0,1.0,82,0.00,,,0.00,Wunderground v.1.15,2013-07-13 06:40:00,
2013-07-13 02:45:00,65.1,59.5,30.23,SSE,155,0.0,1.0,82,0.00,,,0.00,Wunderground v.1.15,2013-07-13 06:45:00,
2013-07-13 02:55:00,65.2,59.9,30.23,SSE,155,0.0,1.0,83,0.00,,,0.00,Wunderground v.1.15,2013-07-13 06:55:00,
2013-07-13 03:00:00,65.2,59.9,30.23,SSE,155,0.0,1.0,83,0.00,,,0.00,Wunderground v.1.15,2013-07-13 07:00:00,
2013-07-13 03:05:00,65.2,59.9,30.23,SSE,155,0.0,1.0,83,0.00,,,0.00,Wunderground v.1.15,2013-07-13 07:05:00,
2013-07-13 03:10:00,65.2,59.9,30.23,SSE,155,0.0,1.0,83,0.00,,,0.00,Wunderground v.1.15,2013-07-13 07:10:00,
2013-07-13 03:15:00,65.2,59.9,30.23,SSE,155,0.0,1.0,83,0.00,,,0.00,Wunderground v.1.15,2013-07-13 07:15:00,
2013-07-13 03:25:00,65.3,60.0,30.24,SSE,155,0.0,1.0,83,0.00,,,0.00,Wunderground v.1.15,2013-07-13 07:25:00,
2013-07-13 03:30:00,65.3,60.0,30.24,SSW,195,0.0,1.0,83,0.00,,,0.00,Wunderground v.1.15,2013-07-13 07:30:00,
2013-07-13 03:35:00,65.4,60.1,30.24,SSW,195,0.0,1.0,83,0.00,,,0.00,Wunderground v.1.15,2013-07-13 07:35:00,
2013-07-13 03:40:00,65.4,60.1,30.24,SSW,195,0.0,1.0,83,0.00,,,0.00,Wunderground v.1.15,2013-07-13 07:40:00,
2013-07-13 03:45:00,65.3,60.0,30.24,SSW,195,0.0,1.0,83,0.00,,,0.00,Wunderground v.1.15,2013-07-13 07:45:00,
2013-07-13 03:55:00,65.4,60.4,30.25,SSW,195,0.0,1.0,84,0.00,,,0.00,Wunderground v.1.15,2013-07-13 07:55:00,
2013-07-13 04:00:00,65.4,60.4,30.24,SSW,195,0.0,1.0,84,0.00,,,0.00,Wunderground v.1.15,2013-07-13 08:00:00,
2013-07-13 04:05:00,65.4,60.4,30.25,South,187,0.0,1.0,84,0.00,,,0.00,Wunderground v.1.15,2013-07-13 08:05:00,
2013-07-13 04:10:00,65.4,60.4,30.25,South,188,0.0,1.0,84,0.00,,,0.00,Wunderground v.1.15,2013-07-13 08:10:00,
2013-07-13 04:15:00,65.5,60.5,30.25,South,187,0.0,1.0,84,0.00,,,0.00,Wunderground v.1.15,2013-07-13 08:15:00,
2013-07-13 04:20:00,65.5,60.2,30.25,South,187,0.0,1.0,83,0.00,,,0.00,Wunderground v.1.15,2013-07-13 08:20:00,
2013-07-13 04:25:00,65.4,60.1,30.25,South,187,0.0,1.0,83,0.00,,,0.00,Wunderground v.1.15,2013-07-13 08:25:00,
2013-07-13 04:30:00,65.4,60.1,30.25,South,187,0.0,1.0,83,0.00,,,0.00,Wunderground v.1.15,2013-07-13 08:30:00,
2013-07-13 04:35:00,65.4,60.1,30.25,South,187,0.0,1.0,83,0.00,,,0.00,Wunderground v.1.15,2013-07-13 08:35:00,
2013-07-13 04:40:00,65.4,60.4,30.25,South,187,0.0,1.0,84,0.00,,,0.00,Wunderground v.1.15,2013-07-13 08:40:00,
2013-07-13 04:45:00,65.4,60.4,30.25,South,187,0.0,1.0,84,0.00,,,0.00,Wunderground v.1.15,2013-07-13 08:45:00,
2013-07-13 04:50:00,65.4,60.1,30.25,South,187,0.0,1.0,83,0.00,,,0.00,Wunderground v.1.15,2013-07-13 08:50:00,
2013-07-13 04:55:00,65.4,60.4,30.26,South,187,0.0,1.0,84,0.00,,,0.00,Wunderground v.1.15,2013-07-13 08:55:00,
2013-07-13 05:05:00,65.4,60.4,30.26,South,186,0.0,1.0,84,0.00,,,0.00,Wunderground v.1.15,2013-07-13 09:05:00,
2013-07-13 05:10:00,65.4,60.4,30.27,South,188,0.0,1.0,84,0.00,,,0.00,Wunderground v.1.15,2013-07-13 09:10:00,
2013-07-13 05:15:00,65.4,60.4,30.26,South,188,0.0,1.0,84,0.00,,,0.00,Wunderground v.1.15,2013-07-13 09:15:00,
2013-07-13 05:20:00,65.5,60.5,30.27,South,187,0.0,1.0,84,0.00,,,0.00,Wunderground v.1.15,2013-07-13 09:20:00,
2013-07-13 05:30:00,65.5,60.5,30.27,South,187,0.0,1.0,84,0.00,,,0.00,Wunderground v.1.15,2013-07-13 09:30:00,
2013-07-13 05:40:00,65.5,60.5,30.27,South,187,0.0,1.0,84,0.00,,,0.00,Wunderground v.1.15,2013-07-13 09:40:00,
2013-07-13 05:45:00,65.5,60.5,30.27,South,188,0.0,1.0,84,0.00,,,0.00,Wunderground v.1.15,2013-07-13 09:45:00,
2013-07-13 05:50:00,65.5,60.5,30.27,South,187,0.0,1.0,84,0.00,,,0.00,Wunderground v.1.15,2013-07-13 09:50:00,
2013-07-13 05:55:00,65.5,60.5,30.28,South,187,0.0,1.0,84,0.00,,,0.00,Wunderground v.1.15,2013-07-13 09:55:00,
2013-07-13 06:05:00,65.6,60.6,30.28,South,187,0.0,1.0,84,0.00,,,0.00,Wunderground v.1.15,2013-07-13 10:05:00,
2013-07-13 06:10:00,65.6,60.3,30.28,South,188,0.0,1.0,83,0.00,,,0.00,Wunderground v.1.15,2013-07-13 10:10:00,
2013-07-13 06:15:00,65.6,60.6,30.28,South,187,0.0,1.0,84,0.00,,,0.00,Wunderground v.1.15,2013-07-13 10:15:00,
2013-07-13 06:25:00,65.6,60.3,30.28,South,187,0.0,1.0,83,0.00,,,0.00,Wunderground v.1.15,2013-07-13 10:25:00,
2013-07-13 06:35:00,65.7,60.4,30.28,South,188,0.0,1.0,83,0.00,,,0.00,Wunderground v.1.15,2013-07-13 10:35:00,
2013-07-13 06:45:00,65.7,60.7,30.28,South,187,0.0,1.0,84,0.00,,,0.00,Wunderground v.1.15,2013-07-13 10:45:00,
2013-07-13 06:50:00,65.7,60.7,30.28,South,187,0.0,1.0,84,0.00,,,0.00,Wunderground v.1.15,2013-07-13 10:50:00,
2013-07-13 06:55:00,65.7,60.7,30.28,South,187,0.0,1.0,84,0.00,,,0.00,Wunderground v.1.15,2013-07-13 10:55:00,
2013-07-13 07:00:00,65.7,60.7,30.28,South,188,0.0,1.0,84,0.00,,,0.00,Wunderground v.1.15,2013-07-13 11:00:00,
2013-07-13 07:10:00,66.0,61.0,30.28,South,187,0.0,1.0,84,0.00,,,0.00,Wunderground v.1.15,2013-07-13 11:10:00,
2013-07-13 07:20:00,66.5,61.2,30.29,South,186,0.0,1.0,83,0.00,,,0.00,Wunderground v.1.15,2013-07-13 11:20:00,
2013-07-13 07:30:00,66.6,61.3,30.29,South,187,0.0,1.0,83,0.00,,,0.00,Wunderground v.1.15,2013-07-13 11:30:00,
2013-07-13 07:35:00,66.5,61.2,30.30,South,187,0.0,1.0,83,0.00,,,0.00,Wunderground v.1.15,2013-07-13 11:35:00,
2013-07-13 07:45:00,66.4,61.4,30.30,South,187,0.0,1.0,84,0.00,,,0.00,Wunderground v.1.15,2013-07-13 11:45:00,
2013-07-13 07:55:00,66.6,61.6,30.31,South,191,0.0,1.0,84,0.00,,,0.00,Wunderground v.1.15,2013-07-13 11:55:00,
2013-07-13 08:05:00,66.7,61.4,30.31,SSE,153,0.0,1.0,83,0.00,,,0.00,Wunderground v.1.15,2013-07-13 12:05:00,
2013-07-13 08:15:00,66.9,61.6,30.31,SSE,153,0.0,1.0,83,0.00,,,0.00,Wunderground v.1.15,2013-07-13 12:15:00,
2013-07-13 08:25:00,66.9,61.9,30.31,SSE,149,0.0,1.0,84,0.00,,,0.00,Wunderground v.1.15,2013-07-13 12:25:00,
2013-07-13 08:35:00,66.9,62.2,30.31,SSW,195,0.0,1.0,85,0.00,,,0.00,Wunderground v.1.15,2013-07-13 12:35:00,
2013-07-13 08:45:00,67.4,62.4,30.31,SSE,155,0.0,1.0,84,0.00,,,0.00,Wunderground v.1.15,2013-07-13 12:45:00,
2013-07-13 08:55:00,68.3,62.9,30.31,SSE,148,0.0,1.0,83,0.00,,,0.00,Wunderground v.1.15,2013-07-13 12:55:00,
2013-07-13 09:05:00,69.0,62.9,30.32,South,181,0.0,1.0,81,0.00,,,0.00,Wunderground v.1.15,2013-07-13 13:05:00,
2013-07-13 09:15:00,69.3,63.6,30.31,SSE,165,0.0,1.0,82,0.00,,,0.00,Wunderground v.1.15,2013-07-13 13:15:00,
2013-07-13 09:25:00,69.4,63.7,30.31,SE,146,0.0,2.0,82,0.00,,,0.00,Wunderground v.1.15,2013-07-13 13:25:00,
2013-07-13 09:35:00,69.5,64.1,30.31,SSE,147,0.0,1.0,83,0.00,,,0.00,Wunderground v.1.15,2013-07-13 13:35:00,
2013-07-13 09:45:00,69.9,64.5,30.31,SSE,148,0.0,1.0,83,0.00,,,0.00,Wunderground v.1.15,2013-07-13 13:45:00,
2013-07-13 09:55:00,70.3,64.5,30.31,SE,142,0.0,1.0,82,0.00,,,0.00,Wunderground v.1.15,2013-07-13 13:55:00,
2013-07-13 10:00:00,70.4,65.0,30.31,SSW,203,0.0,1.0,83,0.00,,,0.00,Wunderground v.1.15,2013-07-13 14:00:00,
2013-07-13 10:10:00,70.7,65.3,30.31,SSW,195,0.0,1.0,83,0.00,,,0.00,Wunderground v.1.15,2013-07-13 14:10:00,
2013-07-13 10:20:00,70.8,65.0,30.31,SSW,204,0.0,1.0,82,0.00,,,0.00,Wunderground v.1.15,2013-07-13 14:20:00,
2013-07-13 10:25:00,70.7,65.3,30.31,SSE,152,0.0,1.0,83,0.00,,,0.00,Wunderground v.1.15,2013-07-13 14:25:00,
2013-07-13 10:30:00,70.8,65.4,30.32,SSE,149,0.0,1.0,83,0.00,,,0.00,Wunderground v.1.15,2013-07-13 14:30:00,
2013-07-13 10:35:00,71.2,65.8,30.32,SE,145,0.0,1.0,83,0.00,,,0.00,Wunderground v.1.15,2013-07-13 14:35:00,
2013-07-13 10:45:00,71.9,66.1,30.32,SE,134,0.0,1.0,82,0.00,,,0.00,Wunderground v.1.15,2013-07-13 14:45:00,
2013-07-13 10:50:00,72.3,66.5,30.32,SE,141,0.0,1.0,82,0.00,,,0.00,Wunderground v.1.15,2013-07-13 14:50:00,
2013-07-13 10:55:00,72.9,66.7,30.32,SE,139,0.0,1.0,81,0.00,,,0.00,Wunderground v.1.15,2013-07-13 14:55:00,
2013-07-13 11:05:00,73.5,66.9,30.32,SE,134,0.0,1.0,80,0.00,,,0.00,Wunderground v.1.15,2013-07-13 15:05:00,
2013-07-13 11:15:00,73.5,66.6,30.32,SE,142,0.0,1.0,79,0.00,,,0.00,Wunderground v.1.15,2013-07-13 15:15:00,
2013-07-13 11:20:00,73.8,67.6,30.32,SSW,203,0.0,1.0,81,0.00,,,0.00,Wunderground v.1.15,2013-07-13 15:20:00,
2013-07-13 11:25:00,74.4,67.5,30.32,SE,138,0.0,1.0,79,0.00,,,0.00,Wunderground v.1.15,2013-07-13 15:25:00,
2013-07-13 11:30:00,74.6,67.3,30.32,ESE,117,0.0,1.0,78,0.00,,,0.00,Wunderground v.1.15,2013-07-13 15:30:00,
2013-07-13 11:35:00,74.6,67.7,30.31,ESE,122,1.0,1.0,79,0.00,,,0.00,Wunderground v.1.15,2013-07-13 15:35:00,
2013-07-13 11:45:00,75.6,69.0,30.31,SE,145,1.0,3.0,80,0.00,,,0.00,Wunderground v.1.15,2013-07-13 15:45:00,
2013-07-13 11:55:00,76.4,68.7,30.31,SE,141,0.0,1.0,77,0.00,,,0.00,Wunderground v.1.15,2013-07-13 15:55:00,
2013-07-13 12:05:00,75.9,68.5,30.32,SE,146,0.0,1.0,78,0.00,,,0.00,Wunderground v.1.15,2013-07-13 16:05:00,
2013-07-13 12:15:00,75.2,67.9,30.32,ESE,108,0.0,1.0,78,0.00,,,0.00,Wunderground v.1.15,2013-07-13 16:15:00,
2013-07-13 12:25:00,74.8,67.8,30.32,ENE,69,0.0,1.0,79,0.00,,,0.00,Wunderground v.1.15,2013-07-13 16:25:00,
2013-07-13 12:35:00,74.7,68.5,30.32,East,93,0.0,1.0,81,0.00,,,0.00,Wunderground v.1.15,2013-07-13 16:35:00,
2013-07-13 12:45:00,74.9,68.3,30.32,SE,126,0.0,1.0,80,0.00,,,0.00,Wunderground v.1.15,2013-07-13 16:45:00,
2013-07-13 12:55:00,75.0,68.4,30.32,SE,126,0.0,1.0,80,0.00,,,0.00,Wunderground v.1.15,2013-07-13 16:55:00,
2013-07-13 13:00:00,75.2,68.6,30.32,SE,126,0.0,1.0,80,0.00,,,0.00,Wunderground v.1.15,2013-07-13 17:00:00,
2013-07-13 13:05:00,75.5,68.9,30.32,SE,128,0.0,1.0,80,0.00,,,0.00,Wunderground v.1.15,2013-07-13 17:05:00,
2013-07-13 13:10:00,75.2,68.2,30.32,ESE,104,0.0,1.0,79,0.00,,,0.00,Wunderground v.1.15,2013-07-13 17:10:00,
2013-07-13 13:15:00,75.1,68.9,30.32,ESE,104,0.0,1.0,81,0.00,,,0.00,Wunderground v.1.15,2013-07-13 17:15:00,
2013-07-13 13:25:00,74.4,68.5,30.32,ESE,103,0.0,1.0,82,0.00,,,0.00,Wunderground v.1.15,2013-07-13 17:25:00,
2013-07-13 13:30:00,74.2,68.0,30.32,ESE,103,0.0,1.0,81,0.00,,,0.00,Wunderground v.1.15,2013-07-13 17:30:00,
2013-07-13 13:40:00,74.4,68.5,30.32,ESE,103,0.0,1.0,82,0.00,,,0.00,Wunderground v.1.15,2013-07-13 17:40:00,
2013-07-13 13:45:00,74.5,68.6,30.32,SSE,149,0.0,1.0,82,0.00,,,0.00,Wunderground v.1.15,2013-07-13 17:45:00,
2013-07-13 13:55:00,74.6,68.7,30.31,ESE,102,0.0,1.0,82,0.00,,,0.00,Wunderground v.1.15,2013-07-13 17:55:00,
2013-07-13 14:00:00,74.7,68.8,30.31,SE,139,0.0,1.0,82,0.00,,,0.00,Wunderground v.1.15,2013-07-13 18:00:00,
2013-07-13 14:10:00,74.9,68.7,30.32,SE,134,0.0,1.0,81,0.00,,,0.00,Wunderground v.1.15,2013-07-13 18:10:00,
2013-07-13 14:15:00,75.1,68.9,30.32,SE,134,0.0,1.0,81,0.00,,,0.00,Wunderground v.1.15,2013-07-13 18:15:00,
2013-07-13 14:25:00,75.4,69.2,30.32,SE,131,0.0,1.0,81,0.00,,,0.00,Wunderground v.1.15,2013-07-13 18:25:00,
2013-07-13 14:30:00,75.6,69.4,30.32,NE,46,0.0,1.0,81,0.00,,,0.00,Wunderground v.1.15,2013-07-13 18:30:00,
2013-07-13 14:40:00,75.5,69.3,30.32,SSE,161,0.0,1.0,81,0.00,,,0.00,Wunderground v.1.15,2013-07-13 18:40:00,
2013-07-13 14:50:00,75.6,69.7,30.32,SSE,152,0.0,1.0,82,0.00,,,0.00,Wunderground v.1.15,2013-07-13 18:50:00,
2013-07-13 15:00:00,76.2,69.2,30.32,SSW,211,0.0,1.0,79,0.00,,,0.00,Wunderground v.1.15,2013-07-13 19:00:00,
2013-07-13 15:10:00,77.0,70.0,30.31,SSW,207,0.0,1.0,79,0.00,,,0.00,Wunderground v.1.15,2013-07-13 19:10:00,
2013-07-13 15:20:00,77.6,69.8,30.31,SE,139,1.0,1.0,77,0.00,,,0.00,Wunderground v.1.15,2013-07-13 19:20:00,
2013-07-13 15:30:00,77.9,69.7,30.31,WSW,255,1.0,1.0,76,0.00,,,0.00,Wunderground v.1.15,2013-07-13 19:30:00,
2013-07-13 15:35:00,77.5,69.7,30.31,ENE,63,1.0,1.0,77,0.00,,,0.00,Wunderground v.1.15,2013-07-13 19:35:00,
2013-07-13 15:45:00,77.5,70.1,30.31,South,181,0.0,1.0,78,0.00,,,0.00,Wunderground v.1.15,2013-07-13 19:45:00,
2013-07-13 15:55:00,77.5,70.1,30.30,South,181,0.0,1.0,78,0.00,,,0.00,Wunderground v.1.15,2013-07-13 19:55:00,
2013-07-13 16:05:00,77.6,70.2,30.30,SSW,200,0.0,1.0,78,0.00,,,0.00,Wunderground v.1.15,2013-07-13 20:05:00,
2013-07-13 16:15:00,77.5,70.5,30.30,SSW,200,0.0,1.0,79,0.00,,,0.00,Wunderground v.1.15,2013-07-13 20:15:00,
2013-07-13 16:20:00,77.3,70.6,30.30,SSE,161,0.0,1.0,80,0.00,,,0.00,Wunderground v.1.15,2013-07-13 20:20:00,
2013-07-13 16:30:00,77.2,70.5,30.30,SE,126,0.0,1.0,80,0.00,,,0.00,Wunderground v.1.15,2013-07-13 20:30:00,
2013-07-13 16:40:00,77.1,70.5,30.30,SE,140,0.0,1.0,80,0.00,,,0.00,Wunderground v.1.15,2013-07-13 20:40:00,
2013-07-13 16:50:00,77.0,70.4,30.30,SSE,149,0.0,1.0,80,0.00,,,0.00,Wunderground v.1.15,2013-07-13 20:50:00,
2013-07-13 17:00:00,77.2,70.5,30.30,SE,137,0.0,1.0,80,0.00,,,0.00,Wunderground v.1.15,2013-07-13 21:00:00,
2013-07-13 17:05:00,77.3,70.6,30.30,SSW,212,0.0,1.0,80,0.00,,,0.00,Wunderground v.1.15,2013-07-13 21:05:00,
2013-07-13 17:15:00,77.4,70.7,30.30,South,170,0.0,1.0,80,0.00,,,0.00,Wunderground v.1.15,2013-07-13 21:15:00,
2013-07-13 17:25:00,77.2,70.5,30.30,SE,136,0.0,1.0,80,0.00,,,0.00,Wunderground v.1.15,2013-07-13 21:25:00,
2013-07-13 17:35:00,77.2,70.5,30.30,SSE,165,0.0,1.0,80,0.00,,,0.00,Wunderground v.1.15,2013-07-13 21:35:00,
2013-07-13 17:45:00,77.1,70.1,30.29,SW,214,0.0,1.0,79,0.00,,,0.00,Wunderground v.1.15,2013-07-13 21:45:00,
2013-07-13 17:50:00,77.0,70.0,30.29,SSW,212,0.0,1.0,79,0.00,,,0.00,Wunderground v.1.15,2013-07-13 21:50:00,
2013-07-13 17:55:00,76.9,70.3,30.30,SSW,203,0.0,1.0,80,0.00,,,0.00,Wunderground v.1.15,2013-07-13 21:55:00,
2013-07-13 18:00:00,76.8,70.2,30.29,SSW,203,0.0,1.0,80,0.00,,,0.00,Wunderground v.1.15,2013-07-13 22:00:00,
2013-07-13 18:05:00,76.8,70.5,30.30,SSW,203,0.0,1.0,81,0.00,,,0.00,Wunderground v.1.15,2013-07-13 22:05:00,
2013-07-13 18:15:00,76.7,70.1,30.30,SSW,193,0.0,1.0,80,0.00,,,0.00,Wunderground v.1.15,2013-07-13 22:15:00,
2013-07-13 18:25:00,76.6,70.0,30.30,SSW,193,0.0,1.0,80,0.00,,,0.00,Wunderground v.1.15,2013-07-13 22:25:00,
2013-07-13 18:35:00,76.8,70.9,30.30,SSW,193,0.0,1.0,82,0.00,,,0.00,Wunderground v.1.15,2013-07-13 22:35:00,
2013-07-13 18:45:00,76.7,70.8,30.30,SE,142,0.0,1.0,82,0.00,,,0.00,Wunderground v.1.15,2013-07-13 22:45:00,
2013-07-13 18:55:00,76.5,70.2,30.31,SSE,150,0.0,1.0,81,0.00,,,0.00,Wunderground v.1.15,2013-07-13 22:55:00,
2013-07-13 19:05:00,76.3,70.4,30.31,SSE,154,0.0,1.0,82,0.00,,,0.00,Wunderground v.1.15,2013-07-13 23:05:00,
2013-07-13 19:10:00,76.2,70.7,30.31,SSE,153,0.0,1.0,83,0.00,,,0.00,Wunderground v.1.15,2013-07-13 23:10:00,
2013-07-13 19:15:00,76.0,70.5,30.31,SSE,153,0.0,1.0,83,0.00,,,0.00,Wunderground v.1.15,2013-07-13 23:15:00,
2013-07-13 19:20:00,75.8,70.6,30.31,SSE,153,0.0,1.0,84,0.00,,,0.00,Wunderground v.1.15,2013-07-13 23:20:00,
2013-07-13 19:25:00,75.6,70.8,30.32,SSE,153,0.0,1.0,85,0.00,,,0.00,Wunderground v.1.15,2013-07-13 23:25:00,
2013-07-13 19:30:00,75.4,70.6,30.32,SSE,166,0.0,1.0,85,0.00,,,0.00,Wunderground v.1.15,2013-07-13 23:30:00,
2013-07-13 19:35:00,75.3,70.5,30.32,SSE,166,0.0,1.0,85,0.00,,,0.00,Wunderground v.1.15,2013-07-13 23:35:00,
2013-07-13 19:40:00,75.2,70.7,30.32,SSE,166,0.0,1.0,86,0.00,,,0.00,Wunderground v.1.15,2013-07-13 23:40:00,
2013-07-13 19:50:00,74.8,71.0,30.32,SSE,166,0.0,1.0,88,0.00,,,0.00,Wunderground v.1.15,2013-07-13 23:50:00,
2013-07-13 19:55:00,74.4,70.9,30.32,SSE,166,0.0,1.0,89,0.00,,,0.00,Wunderground v.1.15,2013-07-13 23:55:00,
2013-07-13 20:00:00,74.1,70.6,30.32,SSE,166,0.0,1.0,89,0.00,,,0.00,Wunderground v.1.15,2013-07-14 00:00:00,
2013-07-13 20:10:00,73.7,70.9,30.32,SSE,166,0.0,1.0,91,0.00,,,0.00,Wunderground v.1.15,2013-07-14 00:10:00,
2013-07-13 20:15:00,73.4,70.6,30.32,SSE,166,0.0,1.0,91,0.00,,,0.00,Wunderground v.1.15,2013-07-14 00:15:00,
2013-07-13 20:25:00,72.9,70.1,30.32,SSE,166,0.0,1.0,91,0.00,,,0.01,Wunderground v.1.15,2013-07-14 00:25:00,
2013-07-13 20:30:00,72.7,70.2,30.32,SSE,166,0.0,1.0,92,0.11,,,0.02,Wunderground v.1.15,2013-07-14 00:30:00,
2013-07-13 20:35:00,72.5,70.0,30.32,SSE,166,0.0,1.0,92,0.20,,,0.03,Wunderground v.1.15,2013-07-14 00:35:00,
2013-07-13 20:40:00,72.3,69.8,30.32,SSE,167,0.0,1.0,92,0.08,,,0.03,Wunderground v.1.15,2013-07-14 00:40:00,
2013-07-13 20:45:00,72.1,70.0,30.32,SSE,166,0.0,1.0,93,0.07,,,0.04,Wunderground v.1.15,2013-07-14 00:45:00,
2013-07-13 20:50:00,72.0,69.9,30.32,SSE,166,0.0,1.0,93,0.06,,,0.04,Wunderground v.1.15,2013-07-14 00:50:00,
2013-07-13 20:55:00,71.9,69.8,30.32,SSE,167,0.0,1.0,93,0.04,,,0.04,Wunderground v.1.15,2013-07-14 00:55:00,
2013-07-13 21:05:00,71.6,69.5,30.31,SSE,166,0.0,1.0,93,0.00,,,0.05,Wunderground v.1.15,2013-07-14 01:05:00,
2013-07-13 21:10:00,71.5,69.7,30.32,SSE,166,0.0,1.0,94,0.00,,,0.05,Wunderground v.1.15,2013-07-14 01:10:00,
2013-07-13 21:15:00,71.3,69.5,30.32,SSE,166,0.0,1.0,94,0.00,,,0.05,Wunderground v.1.15,2013-07-14 01:15:00,
2013-07-13 21:20:00,71.2,69.4,30.32,SSE,166,0.0,1.0,94,0.00,,,0.05,Wunderground v.1.15,2013-07-14 01:20:00,
2013-07-13 21:25:00,71.1,69.3,30.32,SSE,166,0.0,1.0,94,0.00,,,0.05,Wunderground v.1.15,2013-07-14 01:25:00,
2013-07-13 21:30:00,71.0,69.2,30.32,SSE,167,0.0,1.0,94,0.00,,,0.05,Wunderground v.1.15,2013-07-14 01:30:00,
2013-07-13 21:35:00,71.0,69.2,30.31,SSE,166,0.0,1.0,94,0.00,,,0.05,Wunderground v.1.15,2013-07-14 01:35:00,
2013-07-13 21:40:00,71.0,69.5,30.31,SSE,166,0.0,1.0,95,0.00,,,0.05,Wunderground v.1.15,2013-07-14 01:40:00,
2013-07-13 21:45:00,70.9,69.4,30.31,SSE,152,0.0,1.0,95,0.00,,,0.05,Wunderground v.1.15,2013-07-14 01:45:00,
2013-07-13 21:50:00,70.8,69.3,30.31,SSE,153,0.0,1.0,95,0.00,,,0.05,Wunderground v.1.15,2013-07-14 01:50:00,
2013-07-13 21:55:00,70.7,69.2,30.31,SSE,152,0.0,1.0,95,0.00,,,0.05,Wunderground v.1.15,2013-07-14 01:55:00,
2013-07-13 22:00:00,70.6,69.1,30.31,SSE,152,0.0,1.0,95,0.00,,,0.05,Wunderground v.1.15,2013-07-14 02:00:00,
2013-07-13 22:05:00,70.5,69.0,30.31,SSE,152,0.0,1.0,95,0.00,,,0.05,Wunderground v.1.15,2013-07-14 02:05:00,
2013-07-13 22:15:00,70.3,68.8,30.31,SSE,152,0.0,1.0,95,0.00,,,0.05,Wunderground v.1.15,2013-07-14 02:15:00,
2013-07-13 22:20:00,70.1,68.6,30.31,SSE,152,0.0,1.0,95,0.00,,,0.05,Wunderground v.1.15,2013-07-14 02:20:00,
2013-07-13 22:25:00,70.0,68.5,30.31,SSE,152,0.0,1.0,95,0.00,,,0.05,Wunderground v.1.15,2013-07-14 02:25:00,
2013-07-13 22:30:00,70.0,68.5,30.31,SSE,152,0.0,1.0,95,0.00,,,0.05,Wunderground v.1.15,2013-07-14 02:30:00,
2013-07-13 22:35:00,69.9,68.4,30.31,SSE,152,0.0,1.0,95,0.00,,,0.05,Wunderground v.1.15,2013-07-14 02:35:00,
2013-07-13 22:40:00,69.8,68.3,30.31,SSE,152,0.0,1.0,95,0.00,,,0.05,Wunderground v.1.15,2013-07-14 02:40:00,
2013-07-13 22:45:00,69.8,68.3,30.31,SSE,152,0.0,1.0,95,0.00,,,0.05,Wunderground v.1.15,2013-07-14 02:45:00,
2013-07-13 22:50:00,69.7,68.2,30.31,SSE,153,0.0,1.0,95,0.00,,,0.05,Wunderground v.1.15,2013-07-14 02:50:00,
2013-07-13 22:55:00,69.6,68.1,30.31,SSE,152,0.0,1.0,95,0.00,,,0.05,Wunderground v.1.15,2013-07-14 02:55:00,
2013-07-13 23:00:00,69.7,68.5,30.31,SSE,150,0.0,1.0,96,0.00,,,0.05,Wunderground v.1.15,2013-07-14 03:00:00,
2013-07-13 23:05:00,69.7,68.5,30.32,SSE,150,0.0,1.0,96,0.00,,,0.05,Wunderground v.1.15,2013-07-14 03:05:00,
2013-07-13 23:15:00,69.6,68.4,30.32,SSE,151,0.0,1.0,96,0.00,,,0.05,Wunderground v.1.15,2013-07-14 03:15:00,
2013-07-13 23:20:00,69.6,68.4,30.32,SSE,150,0.0,1.0,96,0.00,,,0.05,Wunderground v.1.15,2013-07-14 03:20:00,
2013-07-13 23:25:00,69.5,68.3,30.32,SSE,150,0.0,1.0,96,0.00,,,0.05,Wunderground v.1.15,2013-07-14 03:25:00,
2013-07-13 23:30:00,69.4,68.2,30.32,SSE,150,0.0,1.0,96,0.00,,,0.05,Wunderground v.1.15,2013-07-14 03:30:00,
2013-07-13 23:35:00,69.4,68.2,30.32,SSE,150,0.0,1.0,96,0.00,,,0.05,Wunderground v.1.15,2013-07-14 03:35:00,
2013-07-13 23:40:00,69.5,68.3,30.32,SSE,150,0.0,1.0,96,0.00,,,0.05,Wunderground v.1.15,2013-07-14 03:40:00,
2013-07-13 23:45:00,69.4,68.2,30.32,SSE,150,0.0,1.0,96,0.00,,,0.05,Wunderground v.1.15,2013-07-14 03:45:00,
2013-07-13 23:50:00,69.4,68.2,30.32,SSE,150,0.0,1.0,96,0.00,,,0.05,Wunderground v.1.15,2013-07-14 03:50:00,
2013-07-13 23:55:00,69.5,68.3,30.31,SSE,150,0.0,1.0,96,0.00,,,0.05,Wunderground v.1.15,2013-07-14 03:55:00,